Time,TemperatureF,DewpointF,PressureIn,WindDirection,WindDirectionDegrees,WindSpeedMPH,WindSpeedGustMPH,Humidity,HourlyPrecipIn,Conditions,Clouds,dailyrainin,SoftwareType,DateUTC
2013-02-27 00:02:00,32.0,26.0,29.76,NE,46,10.0,19.0,79,0.00,,,0.01,,2013-02-27 05:02:00,
2013-02-27 00:12:00,32.0,26.0,29.76,NE,46,10.0,19.0,79,0.00,,,0.01,,2013-02-27 05:12:00,
2013-02-27 00:22:00,32.0,26.0,29.75,NE,53,11.0,14.0,79,0.00,,,0.01,,2013-02-27 05:22:00,
2013-02-27 00:32:00,32.0,27.0,29.75,NE,40,3.0,10.0,80,0.00,,,0.01,,2013-02-27 05:32:00,
2013-02-27 00:42:00,32.0,27.0,29.75,NE,40,3.0,10.0,80,0.00,,,0.01,,2013-02-27 05:42:00,
2013-02-27 00:52:00,32.0,27.0,29.74,NE,34,4.0,13.0,80,0.00,,,0.01,,2013-02-27 05:52:00,
2013-02-27 01:02:00,32.0,26.0,29.73,NE,39,5.0,11.0,79,0.00,,,0.01,,2013-02-27 06:02:00,
2013-02-27 01:11:00,32.0,26.0,29.73,NE,39,5.0,11.0,79,0.00,,,0.01,,2013-02-27 06:11:00,
2013-02-27 01:22:00,32.0,26.0,29.72,NNE,33,4.0,13.0,79,0.00,,,0.01,,2013-02-27 06:22:00,
2013-02-27 01:33:00,32.0,27.0,29.72,NE,43,7.0,11.0,80,0.00,,,0.01,,2013-02-27 06:33:00,
2013-02-27 01:42:00,32.0,27.0,29.72,NE,43,7.0,11.0,80,0.00,,,0.01,,2013-02-27 06:42:00,
2013-02-27 01:52:00,32.0,27.0,29.71,NE,50,2.0,11.0,83,0.00,,,0.01,,2013-02-27 06:52:00,
2013-02-27 02:01:00,32.0,27.0,29.70,NE,37,12.0,14.0,83,0.00,,,0.01,,2013-02-27 07:01:00,
2013-02-27 02:12:00,32.0,27.0,29.70,NE,37,12.0,14.0,83,0.00,,,0.01,,2013-02-27 07:12:00,
2013-02-27 02:21:00,32.0,27.0,29.70,NE,51,10.0,17.0,82,0.00,,,0.01,,2013-02-27 07:21:00,
2013-02-27 02:32:00,32.0,27.0,29.69,NE,53,7.0,16.0,82,0.00,,,0.01,,2013-02-27 07:32:00,
2013-02-27 02:42:00,32.0,27.0,29.69,NE,53,7.0,16.0,82,0.00,,,0.01,,2013-02-27 07:42:00,
2013-02-27 02:52:00,32.0,27.0,29.69,ENE,57,10.0,14.0,82,0.00,,,0.01,,2013-02-27 07:52:00,
2013-02-27 03:01:00,32.0,27.0,29.68,NE,46,13.0,18.0,83,0.00,,,0.01,,2013-02-27 08:01:00,
2013-02-27 03:11:00,32.0,27.0,29.68,NE,46,13.0,18.0,83,0.00,,,0.01,,2013-02-27 08:11:00,
2013-02-27 03:21:00,32.0,28.0,29.68,NE,54,0.0,14.0,84,0.00,,,0.01,,2013-02-27 08:21:00,
2013-02-27 03:32:00,32.0,28.0,29.67,NE,38,6.0,12.0,85,0.00,,,0.01,,2013-02-27 08:32:00,
2013-02-27 03:42:00,32.0,28.0,29.67,NE,38,6.0,12.0,85,0.00,,,0.01,,2013-02-27 08:42:00,
2013-02-27 03:53:00,32.0,28.0,29.67,NNE,31,14.0,14.0,85,0.00,,,0.01,,2013-02-27 08:53:00,
2013-02-27 04:02:00,32.0,28.0,29.66,NE,51,9.0,17.0,86,0.00,,,0.01,,2013-02-27 09:02:00,
2013-02-27 04:12:00,32.0,28.0,29.66,NE,51,9.0,17.0,86,0.00,,,0.01,,2013-02-27 09:12:00,
2013-02-27 04:22:00,32.0,28.0,29.65,NE,44,8.0,14.0,86,0.00,,,0.01,,2013-02-27 09:22:00,
2013-02-27 04:32:00,32.0,28.0,29.65,NE,46,10.0,17.0,86,0.00,,,0.01,,2013-02-27 09:32:00,
2013-02-27 04:41:00,32.0,28.0,29.65,NE,46,10.0,17.0,86,0.00,,,0.01,,2013-02-27 09:41:00,
2013-02-27 04:52:00,32.0,29.0,29.65,NE,39,14.0,14.0,87,0.00,,,0.01,,2013-02-27 09:52:00,
2013-02-27 05:01:00,32.0,29.0,29.65,NE,39,14.0,14.0,87,0.00,,,0.01,,2013-02-27 10:01:00,
2013-02-27 05:12:00,32.0,29.0,29.65,NE,39,14.0,14.0,87,0.00,,,0.01,,2013-02-27 10:12:00,
2013-02-27 05:22:00,32.0,29.0,29.65,NE,39,14.0,14.0,87,0.00,,,0.01,,2013-02-27 10:22:00,
2013-02-27 08:50:00,32.0,29.0,29.67,NE,38,11.0,18.0,90,0.00,,,0.01,,2013-02-27 13:50:00,
2013-02-27 09:02:00,32.0,29.0,29.67,NE,42,8.0,17.0,90,0.00,,,0.01,,2013-02-27 14:02:00,
2013-02-27 09:12:00,32.0,29.0,29.67,NE,42,8.0,17.0,90,0.00,,,0.01,,2013-02-27 14:12:00,
2013-02-27 09:22:00,32.0,29.0,29.67,NE,38,11.0,18.0,90,0.00,,,0.01,,2013-02-27 14:22:00,
2013-02-27 09:32:00,32.0,29.0,29.67,NE,38,11.0,18.0,90,0.00,,,0.01,,2013-02-27 14:32:00,
2013-02-27 09:42:00,32.0,29.0,29.67,NE,38,11.0,18.0,90,0.00,,,0.01,,2013-02-27 14:42:00,
2013-02-27 13:02:00,33.0,29.0,29.66,NE,34,7.0,12.0,84,0.00,,,0.01,,2013-02-27 18:02:00,
2013-02-27 13:11:00,33.0,29.0,29.66,NE,34,7.0,12.0,84,0.00,,,0.01,,2013-02-27 18:11:00,
2013-02-27 13:22:00,34.0,29.0,29.65,ENE,68,8.0,14.0,83,0.00,,,0.01,,2013-02-27 18:22:00,
2013-02-27 13:32:00,34.0,29.0,29.65,NNE,33,8.0,12.0,83,0.00,,,0.01,,2013-02-27 18:32:00,
2013-02-27 13:42:00,34.0,29.0,29.65,NNE,33,8.0,12.0,83,0.00,,,0.01,,2013-02-27 18:42:00,
2013-02-27 13:52:00,34.0,29.0,29.65,ENE,57,6.0,11.0,83,0.00,,,0.01,,2013-02-27 18:52:00,
2013-02-27 14:01:00,34.0,29.0,29.64,NNE,31,9.0,11.0,83,0.00,,,0.01,,2013-02-27 19:01:00,
2013-02-27 14:12:00,34.0,29.0,29.64,NNE,31,9.0,11.0,83,0.00,,,0.01,,2013-02-27 19:12:00,
2013-02-27 14:21:00,34.0,29.0,29.65,NNE,29,4.0,11.0,83,0.00,,,0.01,,2013-02-27 19:21:00,
2013-02-27 14:32:00,34.0,29.0,29.65,NNE,26,9.0,12.0,83,0.00,,,0.01,,2013-02-27 19:32:00,
2013-02-27 14:42:00,34.0,29.0,29.65,NNE,26,9.0,12.0,83,0.00,,,0.01,,2013-02-27 19:42:00,
2013-02-27 14:52:00,34.0,29.0,29.65,NE,45,4.0,17.0,83,0.00,,,0.01,,2013-02-27 19:52:00,
2013-02-27 15:02:00,34.0,30.0,29.65,NE,47,6.0,11.0,84,0.00,,,0.01,,2013-02-27 20:02:00,
2013-02-27 15:12:00,34.0,30.0,29.65,NE,47,6.0,11.0,84,0.00,,,0.01,,2013-02-27 20:12:00,
2013-02-27 15:22:00,34.0,30.0,29.65,NE,51,7.0,13.0,84,0.00,,,0.01,,2013-02-27 20:22:00,
2013-02-27 15:32:00,34.0,30.0,29.65,NE,37,10.0,10.0,85,0.00,,,0.01,,2013-02-27 20:32:00,
2013-02-27 15:42:00,34.0,30.0,29.65,NE,37,10.0,10.0,85,0.00,,,0.01,,2013-02-27 20:42:00,
2013-02-27 15:52:00,34.0,30.0,29.65,NE,43,4.0,10.0,85,0.00,,,0.01,,2013-02-27 20:52:00,
2013-02-27 16:02:00,34.0,30.0,29.65,NNE,26,6.0,10.0,85,0.00,,,0.01,,2013-02-27 21:02:00,
2013-02-27 16:11:00,34.0,30.0,29.65,NNE,26,6.0,10.0,85,0.00,,,0.01,,2013-02-27 21:11:00,
2013-02-27 16:22:00,34.0,30.0,29.65,NE,36,9.0,12.0,86,0.00,,,0.01,,2013-02-27 21:22:00,
2013-02-27 16:32:00,34.0,31.0,29.66,NE,48,0.0,11.0,87,0.00,,,0.01,,2013-02-27 21:32:00,
2013-02-27 16:42:00,34.0,31.0,29.66,NE,48,0.0,11.0,87,0.00,,,0.01,,2013-02-27 21:42:00,
2013-02-27 16:52:00,33.0,30.0,29.66,NE,35,6.0,11.0,87,0.00,,,0.01,,2013-02-27 21:52:00,
2013-02-27 17:02:00,33.0,30.0,29.66,NE,41,6.0,11.0,89,0.00,,,0.01,,2013-02-27 22:02:00,
2013-02-27 17:11:00,33.0,30.0,29.66,NE,41,6.0,11.0,89,0.00,,,0.01,,2013-02-27 22:11:00,
2013-02-27 17:21:00,32.0,30.0,29.67,NNE,18,6.0,8.0,91,0.00,,,0.01,,2013-02-27 22:21:00,
2013-02-27 17:32:00,32.0,30.0,29.67,North,1,7.0,10.0,93,0.00,,,0.00,,2013-02-27 22:32:00,
2013-02-27 17:42:00,32.0,30.0,29.67,North,1,7.0,10.0,93,0.00,,,0.00,,2013-02-27 22:42:00,
2013-02-27 17:52:00,32.0,30.0,29.67,NNE,12,6.0,10.0,94,0.00,,,0.00,,2013-02-27 22:52:00,
2013-02-27 18:01:00,32.0,30.0,29.68,NNE,28,6.0,10.0,93,0.00,,,0.00,,2013-02-27 23:01:00,
2013-02-27 18:11:00,32.0,30.0,29.68,NNE,28,6.0,10.0,93,0.00,,,0.00,,2013-02-27 23:11:00,
2013-02-27 18:21:00,32.0,30.0,29.69,NNE,26,6.0,10.0,94,0.00,,,0.00,,2013-02-27 23:21:00,
2013-02-27 18:32:00,32.0,31.0,29.69,NE,38,8.0,10.0,95,0.00,,,0.00,,2013-02-27 23:32:00,
2013-02-27 18:42:00,32.0,31.0,29.69,NE,38,8.0,10.0,95,0.00,,,0.00,,2013-02-27 23:42:00,
2013-02-27 18:53:00,32.0,31.0,29.69,NNE,17,7.0,10.0,95,0.00,,,0.00,,2013-02-27 23:53:00,
2013-02-27 19:02:00,32.0,31.0,29.69,NE,43,4.0,13.0,95,0.00,,,0.00,,2013-02-28 00:02:00,
2013-02-27 19:12:00,32.0,31.0,29.69,NE,43,4.0,13.0,95,0.00,,,0.00,,2013-02-28 00:12:00,
2013-02-27 19:21:00,32.0,31.0,29.70,NNE,17,8.0,10.0,95,0.00,,,0.00,,2013-02-28 00:21:00,
2013-02-27 19:32:00,32.0,31.0,29.70,NNE,28,6.0,12.0,95,0.00,,,0.00,,2013-02-28 00:32:00,
2013-02-27 19:42:00,32.0,31.0,29.70,NNE,28,6.0,12.0,95,0.00,,,0.00,,2013-02-28 00:42:00,
2013-02-27 19:52:00,32.0,30.0,29.70,NE,35,8.0,12.0,94,0.00,,,0.00,,2013-02-28 00:52:00,
2013-02-27 20:01:00,32.0,30.0,29.70,NE,42,7.0,17.0,94,0.00,,,0.00,,2013-02-28 01:01:00,
2013-02-27 20:11:00,32.0,30.0,29.70,NE,42,7.0,17.0,94,0.00,,,0.00,,2013-02-28 01:11:00,
2013-02-27 20:22:00,32.0,30.0,29.70,NE,49,6.0,13.0,93,0.00,,,0.00,,2013-02-28 01:22:00,
2013-02-27 20:32:00,32.0,30.0,29.70,NE,47,7.0,14.0,93,0.00,,,0.00,,2013-02-28 01:32:00,
2013-02-27 20:42:00,32.0,30.0,29.70,NE,47,7.0,14.0,93,0.00,,,0.00,,2013-02-28 01:42:00,
2013-02-27 20:52:00,32.0,30.0,29.70,NE,45,4.0,15.0,93,0.00,,,0.00,,2013-02-28 01:52:00,
2013-02-27 21:01:00,33.0,31.0,29.71,NNE,26,8.0,13.0,92,0.00,,,0.00,,2013-02-28 02:01:00,
2013-02-27 21:11:00,33.0,31.0,29.71,NNE,26,8.0,13.0,92,0.00,,,0.00,,2013-02-28 02:11:00,
2013-02-27 21:22:00,33.0,31.0,29.71,NE,49,6.0,10.0,91,0.00,,,0.00,,2013-02-28 02:22:00,
2013-02-27 21:32:00,33.0,31.0,29.71,NE,35,4.0,10.0,91,0.00,,,0.00,,2013-02-28 02:32:00,
2013-02-27 21:41:00,33.0,31.0,29.71,NE,35,4.0,10.0,91,0.00,,,0.00,,2013-02-28 02:41:00,
2013-02-27 21:52:00,33.0,31.0,29.71,NE,35,4.0,10.0,91,0.00,,,0.00,,2013-02-28 02:52:00,
2013-02-27 22:01:00,32.0,30.0,29.71,North,11,5.0,7.0,93,0.00,,,0.00,,2013-02-28 03:01:00,
2013-02-27 22:11:00,32.0,30.0,29.71,North,11,5.0,7.0,93,0.00,,,0.00,,2013-02-28 03:11:00,
2013-02-27 22:21:00,32.0,30.0,29.70,North,10,6.0,10.0,94,0.00,,,0.00,,2013-02-28 03:21:00,
2013-02-27 22:32:00,32.0,31.0,29.71,NNE,15,6.0,14.0,95,0.00,,,0.00,,2013-02-28 03:32:00,
2013-02-27 22:42:00,32.0,31.0,29.71,NNE,15,6.0,14.0,95,0.00,,,0.00,,2013-02-28 03:42:00,
2013-02-27 22:52:00,32.0,30.0,29.71,NNE,31,7.0,12.0,94,0.00,,,0.00,,2013-02-28 03:52:00,
2013-02-27 23:02:00,32.0,30.0,29.71,NNE,18,5.0,10.0,94,0.00,,,0.00,,2013-02-28 04:02:00,
2013-02-27 23:11:00,32.0,30.0,29.71,NNE,18,5.0,10.0,94,0.00,,,0.00,,2013-02-28 04:11:00,
2013-02-27 23:22:00,32.0,31.0,29.71,NNE,15,7.0,10.0,95,0.00,,,0.00,,2013-02-28 04:22:00,
2013-02-27 23:32:00,32.0,31.0,29.71,NNE,14,6.0,10.0,95,0.00,,,0.00,,2013-02-28 04:32:00,
2013-02-27 23:42:00,32.0,31.0,29.71,NNE,14,6.0,10.0,95,0.00,,,0.00,,2013-02-28 04:42:00,
2013-02-27 23:52:00,32.0,31.0,29.71,NNE,20,6.0,11.0,95,0.00,,,0.00,,2013-02-28 04:52:00,